Location: Drocourt
(49.0571°N, 1.7669°E)
Time: 19:31:32
(UTC+00:00)

BREEZE-M DEB (TANK) - Pass Details

Date: 09 February 2023
Orbit: 761 x 22168 km, 51.4° (Epoch: 25 March)

Event Time Altitude Azimuth Distance (km) Brightness Sun altitude
Rises 20:14:09 0° 235° (SW) 10,913 9.4 -31.6°
Reaches altitude 10° 20:24:30 10° 235° (SW) 7,240 8.3 -33.2°
Enters shadow 20:38:47 65° 201° (SSW) 1,561 4.3 -35.4°
